User: anonymous   Login
Location: Unspecified
(0.0000°N, 0.0000°E)
Time: 04:48:17
(UTC+00:00)
Language:

GGSE 1 - Orbit

View from above orbital plane
View from above orbital plane
View from above satellite
View from above satellite

Ground track
Ground track

The orbit data is extracted from the following two-line orbital elements,

1   728U 64001B   18020.52300713 -.00000018 +00000-0 +25848-4 0  9991
2   728 069.9087 329.5406 0014814 328.0529 031.9677 13.97103246750858
Epoch (UTC): 20 January 2018 12:33:07
Eccentricity: 0.0014814
inclination: 69.9087°
perigee height: 893 km
apogee height: 914 km
right ascension of ascending node: 329.5406°
argument of perigee: 328.0529°
revolutions per day: 13.97103246
mean anomaly at epoch: 31.9677°
orbit number at epoch: 75085

The dashed part of the orbit path shows where the satellite is in the earth's shadow,  

DLR